Content
SEND FEEDBACK

Daily
Averages
Monthly
Summary
Brazil

MACAE, RIO DE JANEIRO


Home > South America > Brazil > Rio De Janeiro
Elevation: 7 feet     Latitude: 22 21S     Longitude: 041 46W

WEATHER
 
SELECT A DAY
Number of Records: 103,811;   Date Range: 6/30/96 - 12/27/14
 
SHARE

PRINT THIS DATA

[ ← Previous Day ]
WEATHER ALMANAC - FEBRUARY 5, 2013
[ Next Day → ]
[ °C ]   °F
Weather ElementAverageHighLow
Temperature76.3 °F80.6 °F (9:00 am)71.6 °F (11:00 pm)
Dewpoint71.8 °F73.4 °F (1:00 am)71.6 °F (2:00 am)
Humidity86.7 %100 % (1:00 am)74 % (9:00 am)
Barometer29.94 in30.01 in (11:00 pm)29.86 in (3:00 am)
Wind Speed4.4 mph6.9 mph (12:00 pm)
Weather ElementAverage
Visibility4.6 mi
Wind DirectionWSW (247.9 °)

Weather ElementTotal
Precipitation---
Cooling Degree Days11.1 (Base 65)
Growing Degree Days26.1 (Base 50)
Averaged from 24 records on February 5, 2013
WEATHER CONDITIONS BREAKOUT
WIND DIRECTION BREAKOUT
WEATHER BY HOUR - FEBRUARY 5, 2013
[ °C ]   °F
Local TimeTemperatureDewpointHumidityBarometerVisibilityWind DirectionWind SpeedGust SpeedPrecipitationEventsConditions
1:00 AM73.4 °F73.4 °F100 %29.89 in5.0 miSW (230°)3.5 mphOvercast
2:00 AM73.4 °F71.6 °F94 %29.89 in6.2 miSW (230°)2.3 mphOvercast
3:00 AM73.4 °F71.6 °F94 %29.86 in5.0 miWSW (240°)3.5 mphOvercast
4:00 AM73.4 °F71.6 °F94 %29.86 in5.0 miWSW (250°)3.5 mphOvercast
5:00 AM73.4 °F71.6 °F94 %29.86 in5.0 miWSW (250°)3.5 mphOvercast
6:00 AM73.4 °F71.6 °F94 %29.89 in6.2 miSW (230°)3.5 mphOvercast
7:00 AM73.4 °F71.6 °F94 %29.89 in6.2 miWest (260°)3.5 mphMostly Cloudy
8:00 AM77.0 °F71.6 °F83 %29.92 in6.2 miWSW (250°)5.8 mphMostly Cloudy
9:00 AM80.6 °F71.6 °F74 %29.95 in6.2 miWSW (250°)5.8 mphMostly Cloudy
10:00 AM80.6 °F71.6 °F74 %29.95 in6.2 miWest (270°)5.8 mphMostly Cloudy
11:00 AM80.6 °F71.6 °F74 %29.98 in6.2 miWest (260°)5.8 mphMostly Cloudy
12:00 PM80.6 °F71.6 °F74 %29.98 in6.2 miWSW (240°)6.9 mphMostly Cloudy
12:30 PM75.2 °F71.6 °F89 %29.98 in1.2 miSW (220°)4.6 mphRainLight Rain
1:00 PM77.0 °F73.4 °F89 %29.95 in2.5 miSW (220°)4.6 mphRainLight Rain
2:00 PM80.6 °F71.6 °F74 %29.95 in3.1 miSSW (200°)5.8 mphHaze
3:00 PM80.6 °F71.6 °F74 %29.95 in4.3 miSW (220°)5.8 mphOvercast
4:00 PM78.8 °F71.6 °F78 %29.92 in4.3 miSSW (200°)3.5 mphOvercast
5:00 PM80.6 °F71.6 °F74 %29.92 in3.7 miSSW (200°)4.6 mphOvercast
6:00 PM77.0 °F73.4 °F89 %29.95 in2.5 miSW (230°)3.5 mphOvercast
7:00 PM75.2 °F71.6 °F89 %29.95 in4.3 miWest (270°)2.3 mphRainLight Rain
8:00 PM73.4 °F71.6 °F94 %29.98 in4.3 miWNW (300°)3.5 mphRainLight Rain
9:00 PM73.4 °F71.6 °F94 %29.98 in4.3 miWNW (300°)3.5 mphRainLight Rain
10:00 PM73.4 °F71.6 °F94 %29.98 in3.7 miNW (310°)5.8 mphRainLight Rain
11:00 PM71.6 °F71.6 °F100 %30.01 in3.7 miNW (320°)5.8 mphRainLight Rain
Hourly data recorded from SBME, located miles away from Macae, Rio De Janeiro







STORIES FROM OUR PARTNERS